Wind_Speed
1 1 2 4 5 6 8 9 9 9 11 12 13 14 15 17 18 18 18 19 19 20 20 19 19 20 23 23 22 23 24 24 24 24 23 22 22 23 22 21 21 20 20 19
1 1 3 5 6 8 9 10 10 10 11 13 14 14 15 18 18 19 21 21 20 22 23 23 24 23 22 22 23 24 23 23 23 23 23 22 21 22 21 21 20 19 19 19
3 4 5 7 9 9 10 10 10 10 11 13 14 14 15 17 19 20 21 22 23 23 24 24 23 22 23 23 23 23 22 22 22 21 21 20 20 21 20 20 20 19 19 20
3 4 6 8 8 9 10 11 12 12 11 12 14 15 16 17 19 19 21 22 24 24 25 23 23 23 23 23 24 24 24 23 22 21 21 21 21 20 20 20 20 20 20 20
4 5 7 8 9 10 11 12 13 13 13 13 14 16 16 16 17 19 21 22 22 23 23 22 22 23 23 23 23 23 23 22 22 21 21 21 21 20 20 20 20 20 20 20
6 8 9 9 10 12 12 13 13 13 13 14 14 15 15 16 17 17 18 19 20 20 20 20 20 20 21 22 22 22 23 22 21 21 21 20 20 20 19 20 19 19 19 18
7 9 11 12 12 13 14 14 13 13 13 13 14 15 16 16 16 16 18 19 19 19 19 19 19 20 21 21 20 21 21 21 20 20 20 20 19 19 19 18 18 18 18 17
8 10 12 13 14 15 14 14 13 13 14 14 14 15 15 14 16 17 18 17 17 17 19 20 19 20 21 21 20 21 20 20 20 20 19 19 18 18 17 17 16 16 15 16
10 12 13 14 15 15 15 13 13 13 14 15 15 14 14 15 15 16 16 16 17 18 19 19 19 19 20 20 20 20 20 19 19 19 18 18 18 17 15 15 14 14 15 15
12 13 14 14 14 14 14 13 13 14 15 15 14 14 15 16 16 15 16 17 17 18 17 18 19 19 19 19 19 20 19 19 19 18 17 16 15 15 14 13 13 14 15 15
13 14 14 15 14 13 13 13 13 13 14 15 16 15 15 15 16 16 16 17 18 18 18 18 18 19 19 19 19 19 19 18 18 18 16 15 14 13 13 12 13 13 14 14
13 14 15 15 15 14 13 14 12 12 13 15 16 15 14 15 15 16 17 17 16 18 19 19 18 18 19 19 19 18 18 17 17 17 15 14 14 14 13 13 12 12 13 13
14 15 15 15 15 15 14 14 13 12 13 14 14 14 14 14 14 15 16 16 17 18 19 19 19 18 18 18 18 18 18 16 16 15 15 14 14 13 13 12 12 12 12 13
15 15 15 15 15 15 14 13 13 13 12 13 13 13 13 14 15 15 16 17 18 18 18 18 18 17 17 17 18 17 17 16 15 15 14 14 13 13 13 12 11 11 12 13
14 14 14 15 15 15 14 13 12 13 13 13 12 12 13 14 15 16 17 17 18 18 16 16 16 16 15 16 16 17 16 15 15 15 14 14 14 13 13 12 12 12 13 14
14 14 14 14 15 14 13 12 12 13 13 13 13 13 14 15 16 17 17 17 17 17 16 15 15 15 15 16 16 16 16 15 15 15 14 13 13 13 13 12 12 12 13 15
15 14 14 14 14 13 12 12 13 14 14 13 14 14 15 16 17 17 16 17 17 16 15 15 15 15 15 16 16 16 16 15 15 15 14 13 13 13 13 12 12 13 14 14
16 15 14 14 14 13 12 13 14 14 14 14 15 15 16 16 17 17 16 16 16 15 15 16 15 15 16 16 16 16 15 15 16 15 14 13 13 12 13 13 13 13 13 14
16 15 14 14 13 13 13 14 14 15 15 14 14 14 15 16 16 16 16 16 16 16 16 16 16 16 16 16 16 15 15 15 16 15 14 13 13 12 13 13 13 13 14 14
16 15 15 15 15 15 14 14 15 15 15 15 15 16 16 16 16 16 17 17 17 16 16 16 16 16 16 16 16 15 15 16 15 14 13 13 13 13 14 14 13 13 14 14
16 15 15 16 16 15 15 15 15 16 16 16 17 17 17 17 18 18 18 17 17 17 17 17 16 16 16 16 16 15 15 15 14 13 13 13 12 12 13 13 14 14 14 14
18 17 17 17 17 17 16 16 16 17 17 17 17 18 18 19 19 19 19 19 18 18 18 18 17 16 16 16 15 15 15 14 14 13 13 13 13 13 13 13 13 14 14 14
19 19 19 19 19 19 18 18 18 18 18 18 19 19 19 19 20 20 20 20 20 19 19 18 17 16 16 15 15 15 14 13 13 13 13 13 13 13 12 13 13 14 15 15
21 21 21 21 20 20 19 20 20 20 20 20 20 20 19 20 21 21 21 21 21 20 19 18 17 17 16 16 15 15 14 13 13 13 13 13 13 13 13 13 13 14 14 14
22 22 22 22 22 22 22 22 22 22 22 22 22 22 21 21 22 22 22 21 20 19 19 18 17 17 16 16 15 14 13 13 13 13 13 13 13 13 13 14 13 14 15 15
23 24 24 24 24 24 23 23 23 23 23 24 24 23 22 22 23 23 22 21 21 19 18 18 18 18 17 16 15 14 13 14 14 14 13 13 13 13 13 13 14 14 15 16
Wind_Direction
220 281 316 311 292 294 300 303 296 292 292 285 281 284 288 292 293 296 302 308 309 310 309 307 306 303 304 305 304 304 305 303 300 297 294 292 293 293 292 291 289 288 286 284
310 313 343 328 311 306 300 302 300 301 295 291 289 292 295 294 296 299 303 306 307 308 309 308 307 305 305 306 306 307 307 304 300 299 296 294 293 291 290 287 286 285 286 287
353 343 337 326 320 312 302 304 303 301 297 297 292 292 299 304 305 306 306 307 306 308 309 313 311 308 307 306 307 309 308 306 304 301 298 298 295 291 288 287 286 283 285 285
353 336 319 311 310 310 304 302 300 301 297 291 292 295 302 307 308 307 306 305 305 309 312 312 312 310 310 308 309 311 309 308 306 303 300 299 295 290 289 287 285 284 285 284
335 320 319 314 311 308 309 306 303 298 294 287 288 290 299 305 304 305 305 305 307 313 315 314 313 313 310 308 310 312 311 309 308 306 304 300 297 295 293 290 286 285 286 286
318 320 321 317 311 304 303 301 300 297 291 285 287 292 299 303 305 307 306 309 313 316 319 317 314 315 316 314 314 315 315 312 310 309 308 304 301 300 296 293 290 288 287 285
319 316 314 317 316 306 301 298 293 288 286 286 291 292 298 305 309 311 312 315 316 317 319 317 317 321 323 324 322 319 318 315 313 312 310 306 303 301 299 297 294 292 289 285
309 314 314 315 317 316 309 304 300 297 298 300 300 299 302 308 313 314 316 317 318 320 319 319 323 325 326 327 326 324 322 321 318 315 310 307 305 305 301 301 300 298 296 291
310 313 313 313 316 319 316 306 302 296 298 302 305 304 303 307 312 315 318 321 323 323 324 324 324 326 327 328 327 327 325 323 321 319 316 312 309 308 305 304 303 301 298 296
305 306 305 307 311 315 317 310 303 302 302 304 304 304 307 309 311 314 319 323 326 326 325 322 324 325 325 327 329 329 328 326 326 325 324 322 319 315 313 308 306 305 302 300
301 303 304 307 309 311 316 315 306 300 302 304 306 309 312 311 316 319 322 325 326 327 325 323 325 326 326 327 328 328 330 330 331 330 330 330 329 325 319 317 314 313 312 308
300 302 303 305 308 308 309 310 306 304 304 307 306 307 311 315 320 321 324 326 328 328 327 326 328 326 327 329 328 328 332 333 332 332 333 331 331 330 327 325 320 320 319 318
299 299 300 302 304 304 303 306 305 304 308 312 310 308 310 319 321 323 324 324 326 327 325 325 327 326 327 330 331 331 333 334 335 336 336 333 332 330 331 331 329 328 326 326
299 297 299 302 303 302 303 305 306 306 308 311 311 311 312 317 319 321 323 322 323 325 325 325 325 326 327 329 333 334 334 334 336 337 336 337 337 337 336 332 332 333 333 331
300 298 298 300 303 304 303 303 306 309 311 313 314 312 313 315 318 319 318 318 321 324 324 324 325 325 328 330 333 336 334 335 336 336 336 338 339 337 336 335 334 335 334 334
301 298 299 301 305 304 303 303 305 307 311 313 315 312 312 314 316 317 318 319 321 324 325 325 325 324 328 331 332 332 333 335 336 337 337 339 339 338 339 339 338 336 336 335
303 302 302 301 302 302 303 306 307 309 314 314 312 311 312 315 316 318 319 320 322 323 325 325 325 324 324 327 331 331 329 333 335 336 336 335 334 338 341 342 340 336 336 337
304 303 303 303 301 301 306 305 306 308 311 311 309 311 312 313 313 315 317 319 320 322 323 324 321 320 323 326 328 329 326 329 331 331 330 330 331 333 338 338 337 336 336 338
302 301 302 302 301 300 300 303 305 305 306 308 308 307 308 309 310 312 314 314 316 318 319 319 318 318 321 324 325 325 326 328 330 329 326 326 328 330 335 336 335 337 337 338
298 298 299 301 301 301 301 301 303 304 305 306 304 304 305 305 306 309 310 310 311 312 314 316 317 317 319 321 322 321 324 327 327 327 325 322 323 327 331 334 336 339 340 342
296 298 299 299 299 300 303 300 300 299 303 302 300 299 300 304 306 307 307 308 310 310 310 312 314 314 316 317 319 319 320 325 326 327 326 324 326 328 333 336 340 341 341 341
290 293 296 299 299 301 301 299 297 298 298 299 299 298 297 298 301 305 305 306 307 307 306 307 310 312 314 315 315 316 318 321 322 323 324 326 328 329 332 336 340 341 340 339
286 288 291 294 294 296 295 295 296 295 295 296 297 298 297 297 297 300 303 304 304 305 306 306 306 308 310 312 312 313 315 317 317 319 320 324 327 329 330 333 336 337 336 336
282 284 285 288 288 291 291 293 294 295 296 294 293 295 294 294 295 296 297 299 300 301 303 302 302 304 306 308 309 309 310 312 314 318 319 321 325 325 325 326 330 332 334 336
281 282 283 284 286 287 287 289 290 291 292 292 291 290 290 291 293 294 295 296 296 297 299 300 300 301 302 304 305 306 305 308 310 314 316 318 320 322 322 323 327 330 334 336
279 280 282 284 284 285 285 285 286 288 290 291 291 291 290 290 292 293 294 295 296 295 295 295 295 297 298 299 299 299 301 304 305 307 310 314 317 318 319 323 327 328 330 333
Height
5867 5867 5865 5864 5864 5862 5861 5861 5860 5860 5858 5857 5855 5854 5853 5852 5850 5849 5847 5845 5843 5841 5838 5835 5832 5829 5827 5824 5821 5818 5814 5811 5808 5806 5803 5801 5799 5796 5794 5792 5790 5788 5786 5785
5867 5866 5865 5863 5862 5861 5860 5859 5859 5858 5856 5854 5852 5851 5850 5848 5847 5845 5843 5840 5839 5837 5833 5831 5827 5825 5822 5819 5815 5812 5808 5804 5801 5799 5796 5793 5792 5790 5788 5786 5784 5782 5781 5780
5865 5865 5863 5862 5861 5860 5858 5858 5857 5855 5853 5851 5849 5848 5847 5845 5842 5840 5838 5836 5834 5831 5829 5825 5823 5820 5816 5813 5809 5806 5803 5799 5795 5792 5790 5787 5785 5784 5782 5780 5778 5777 5776 5775
5864 5863 5862 5861 5860 5858 5857 5856 5854 5852 5851 5849 5848 5845 5843 5841 5839 5836 5834 5832 5829 5826 5823 5820 5818 5814 5811 5807 5804 5800 5797 5794 5790 5787 5785 5782 5780 5778 5776 5774 5772 5771 5770 5768
5863 5861 5860 5859 5857 5856 5854 5853 5851 5850 5848 5846 5844 5842 5841 5838 5835 5832 5830 5827 5824 5821 5819 5816 5813 5809 5806 5802 5798 5795 5791 5788 5785 5782 5779 5777 5774 5772 5770 5768 5767 5765 5764 5762
5861 5859 5858 5856 5855 5853 5852 5851 5849 5847 5845 5844 5842 5839 5838 5834 5832 5829 5826 5823 5820 5817 5814 5811 5808 5805 5801 5796 5793 5790 5786 5783 5781 5777 5774 5771 5769 5766 5765 5762 5760 5759 5758 5757
5859 5858 5855 5853 5852 5850 5848 5847 5846 5844 5842 5840 5838 5836 5835 5831 5828 5826 5823 5820 5816 5813 5810 5806 5803 5800 5796 5793 5789 5786 5782 5779 5776 5773 5769 5766 5764 5761 5759 5757 5755 5753 5752 5751
5857 5856 5853 5851 5849 5847 5844 5843 5842 5840 5838 5836 5834 5832 5831 5828 5825 5822 5819 5816 5813 5809 5806 5802 5799 5796 5793 5789 5786 5783 5779 5775 5771 5768 5765 5761 5759 5757 5755 5752 5750 5748 5747 5746
5854 5853 5851 5848 5846 5844 5841 5839 5838 5837 5834 5832 5830 5829 5827 5824 5822 5819 5817 5814 5810 5806 5803 5799 5796 5793 5789 5786 5783 5779 5775 5772 5768 5764 5761 5758 5755 5752 5750 5748 5746 5744 5743 5741
5851 5850 5848 5846 5844 5842 5839 5836 5834 5833 5830 5828 5827 5825 5824 5821 5819 5817 5814 5810 5807 5803 5800 5796 5793 5790 5787 5783 5780 5776 5772 5768 5765 5761 5758 5755 5752 5749 5747 5745 5743 5741 5738 5736
5848 5847 5845 5843 5840 5838 5836 5834 5831 5829 5827 5825 5823 5824 5820 5818 5815 5812 5809 5806 5803 5800 5796 5793 5790 5787 5783 5780 5776 5773 5769 5765 5762 5758 5755 5752 5750 5747 5744 5742 5739 5737 5735 5732
5845 5843 5841 5839 5837 5835 5833 5830 5828 5827 5824 5822 5820 5821 5816 5814 5812 5809 5806 5803 5800 5797 5794 5790 5787 5784 5780 5777 5773 5770 5766 5762 5759 5756 5753 5750 5747 5745 5742 5739 5737 5734 5732 5729
5841 5840 5838 5835 5835 5832 5829 5827 5825 5823 5821 5818 5817 5818 5813 5811 5809 5806 5803 5800 5797 5794 5791 5788 5784 5781 5778 5774 5770 5766 5763 5760 5757 5754 5751 5748 5745 5743 5740 5737 5735 5732 5729 5727
5837 5835 5834 5833 5830 5827 5825 5824 5822 5820 5818 5816 5814 5812 5810 5808 5806 5803 5800 5797 5794 5791 5788 5785 5782 5779 5775 5772 5768 5764 5761 5758 5756 5753 5750 5747 5744 5741 5738 5735 5733 5730 5727 5724
5833 5831 5829 5827 5825 5823 5821 5819 5818 5817 5815 5813 5811 5808 5807 5805 5803 5800 5797 5794 5791 5788 5785 5782 5779 5777 5773 5770 5766 5763 5760 5757 5754 5751 5748 5745 5742 5739 5737 5734 5731 5728 5725 5722
5830 5828 5826 5824 5822 5820 5818 5816 5815 5813 5811 5809 5807 5805 5803 5801 5799 5797 5794 5791 5788 5785 5782 5779 5777 5774 5771 5768 5765 5762 5758 5755 5752 5749 5746 5743 5740 5737 5735 5732 5729 5726 5723 5720
5826 5824 5822 5820 5818 5816 5815 5814 5811 5810 5808 5806 5804 5803 5800 5798 5796 5793 5791 5788 5784 5782 5779 5777 5774 5771 5769 5766 5763 5759 5756 5753 5750 5747 5744 5742 5739 5736 5733 5730 5727 5724 5721 5718
5822 5820 5818 5816 5815 5814 5814 5810 5808 5806 5805 5803 5800 5799 5797 5794 5792 5790 5787 5785 5782 5779 5777 5774 5771 5769 5766 5763 5760 5757 5754 5752 5749 5745 5743 5740 5737 5735 5731 5729 5726 5722 5719 5715
5817 5816 5814 5812 5810 5809 5808 5806 5804 5802 5801 5799 5797 5795 5793 5791 5789 5787 5784 5782 5779 5776 5774 5772 5769 5766 5763 5760 5757 5754 5752 5749 5746 5743 5741 5738 5735 5732 5730 5727 5724 5720 5717 5713
5813 5812 5810 5808 5806 5805 5805 5802 5800 5799 5797 5796 5793 5792 5789 5787 5786 5784 5781 5778 5776 5773 5771 5769 5766 5763 5761 5758 5755 5752 5749 5747 5744 5741 5738 5736 5733 5731 5728 5725 5722 5718 5715 5711
5809 5807 5805 5803 5801 5800 5799 5797 5797 5796 5795 5792 5789 5787 5785 5783 5781 5779 5776 5773 5771 5769 5767 5765 5763 5760 5758 5755 5752 5750 5747 5744 5741 5739 5736 5733 5731 5729 5726 5723 5720 5716 5713 5709
5803 5802 5800 5799 5797 5798 5794 5793 5792 5791 5788 5786 5785 5783 5781 5779 5776 5773 5771 5769 5767 5765 5763 5761 5759 5757 5754 5752 5749 5747 5744 5742 5739 5736 5734 5731 5729 5726 5723 5720 5717 5714 5711 5707
5798 5797 5795 5794 5794 5791 5789 5788 5786 5785 5783 5781 5779 5777 5775 5774 5772 5769 5767 5764 5762 5760 5758 5756 5755 5753 5751 5749 5746 5744 5741 5739 5736 5734 5731 5729 5726 5724 5721 5718 5715 5712 5708 5705
5792 5791 5789 5788 5786 5785 5783 5782 5780 5779 5777 5775 5774 5772 5771 5769 5767 5764 5762 5760 5758 5755 5754 5752 5750 5749 5747 5745 5743 5740 5738 5736 5734 5731 5729 5726 5724 5721 5719 5716 5713 5710 5706 5702
5786 5784 5783 5782 5781 5779 5778 5776 5775 5773 5771 5770 5768 5767 5765 5763 5761 5759 5756 5754 5752 5751 5749 5747 5746 5745 5743 5741 5739 5737 5735 5733 5731 5728 5726 5724 5721 5719 5716 5713 5710 5707 5704 5700
5779 5777 5776 5775 5774 5773 5772 5770 5768 5767 5765 5763 5761 5760 5758 5756 5754 5752 5750 5748 5747 5745 5744 5742 5741 5740 5738 5736 5735 5733 5731 5729 5728 5725 5723 5721 5719 5716 5714 5711 5708 5704 5701 5698